TimeMST,TemperatureF,Dew PointF,Humidity,Sea Level PressureIn,VisibilityMPH,Wind Direction,Wind SpeedMPH,Gust SpeedMPH,PrecipitationIn,Events,Conditions,WindDirDegrees,DateUTC
12:15 AM,35.6,26.6,70,30.18,10.0,Calm,Calm,-,N/A,,Clear,0,2013-11-28 07:15:00
12:35 AM,35.6,28.4,75,30.17,10.0,Calm,Calm,-,N/A,,Clear,0,2013-11-28 07:35:00
12:55 AM,35.6,28.4,75,30.18,10.0,SW,3.5,-,N/A,,Clear,220,2013-11-28 07:55:00
1:15 AM,35.6,30.2,81,30.17,10.0,Calm,Calm,-,N/A,,Clear,0,2013-11-28 08:15:00
1:35 AM,35.6,26.6,70,30.17,10.0,Calm,Calm,-,N/A,,Clear,0,2013-11-28 08:35:00
1:55 AM,35.6,26.6,70,30.18,10.0,Calm,Calm,-,N/A,,Clear,0,2013-11-28 08:55:00
2:15 AM,37.4,24.8,60,30.18,10.0,Calm,Calm,-,N/A,,Clear,0,2013-11-28 09:15:00
2:35 AM,37.4,24.8,60,30.18,10.0,Calm,Calm,-,N/A,,Clear,0,2013-11-28 09:35:00
2:55 AM,33.8,21.2,60,30.18,10.0,NE,4.6,-,N/A,,Clear,40,2013-11-28 09:55:00
3:15 AM,30.2,21.2,69,30.18,10.0,NNE,8.1,-,N/A,,Clear,30,2013-11-28 10:15:00
3:35 AM,28.4,21.2,74,30.18,10.0,North,5.8,-,N/A,,Clear,10,2013-11-28 10:35:00
3:55 AM,28.4,21.2,74,30.18,10.0,North,5.8,-,N/A,,Clear,10,2013-11-28 10:55:00
4:15 AM,26.6,21.2,80,30.19,10.0,North,5.8,-,N/A,,Clear,350,2013-11-28 11:15:00
4:35 AM,28.4,21.2,74,30.19,10.0,North,4.6,-,N/A,,Clear,350,2013-11-28 11:35:00
4:55 AM,28.4,23.0,80,30.19,10.0,North,4.6,-,N/A,,Clear,360,2013-11-28 11:55:00
5:15 AM,30.2,23.0,75,30.20,10.0,North,3.5,-,N/A,,Clear,360,2013-11-28 12:15:00
5:35 AM,28.4,21.2,74,30.20,10.0,NNE,3.5,-,N/A,,Clear,30,2013-11-28 12:35:00
5:55 AM,30.2,21.2,69,30.21,10.0,Calm,Calm,-,N/A,,Clear,0,2013-11-28 12:55:00
6:15 AM,26.6,19.4,74,30.21,10.0,Calm,Calm,-,N/A,,Clear,0,2013-11-28 13:15:00
6:35 AM,28.4,21.2,74,30.21,10.0,Calm,Calm,-,N/A,,Clear,0,2013-11-28 13:35:00
6:55 AM,28.4,21.2,74,30.21,10.0,North,4.6,-,N/A,,Clear,350,2013-11-28 13:55:00
7:15 AM,28.4,21.2,74,30.22,10.0,North,3.5,-,N/A,,Clear,360,2013-11-28 14:15:00
7:35 AM,28.4,21.2,74,30.22,10.0,North,4.6,-,N/A,,Clear,10,2013-11-28 14:35:00
7:55 AM,28.4,21.2,74,30.23,10.0,North,4.6,-,N/A,,Clear,10,2013-11-28 14:55:00
8:15 AM,28.4,23.0,80,30.24,10.0,NNE,3.5,-,N/A,,Clear,20,2013-11-28 15:15:00
8:35 AM,30.2,24.8,80,30.25,10.0,NNE,4.6,-,N/A,,Clear,20,2013-11-28 15:35:00
8:55 AM,30.2,24.8,80,30.25,10.0,North,4.6,-,N/A,,Clear,10,2013-11-28 15:55:00
9:15 AM,30.2,24.8,80,30.25,10.0,NNE,4.6,-,N/A,,Clear,20,2013-11-28 16:15:00
9:35 AM,32.0,24.8,75,30.25,10.0,NE,3.5,-,N/A,,Clear,40,2013-11-28 16:35:00
9:55 AM,33.8,24.8,70,30.25,10.0,North,5.8,-,N/A,,Clear,10,2013-11-28 16:55:00
10:15 AM,33.8,26.6,75,30.25,10.0,North,5.8,-,N/A,,Clear,10,2013-11-28 17:15:00
10:35 AM,35.6,28.4,75,30.24,10.0,NE,4.6,-,N/A,,Clear,40,2013-11-28 17:35:00
10:55 AM,37.4,26.6,65,30.23,10.0,NE,5.8,-,N/A,,Clear,40,2013-11-28 17:55:00
11:15 AM,39.2,26.6,61,30.22,10.0,NE,4.6,-,N/A,,Clear,50,2013-11-28 18:15:00
11:35 AM,39.2,26.6,61,30.21,10.0,NNE,4.6,-,N/A,,Clear,20,2013-11-28 18:35:00
11:55 AM,41.0,26.6,57,30.21,10.0,ENE,3.5,-,N/A,,Clear,70,2013-11-28 18:55:00
12:15 PM,41.0,26.6,57,30.20,10.0,East,3.5,-,N/A,,Clear,90,2013-11-28 19:15:00
12:35 PM,42.8,26.6,53,30.19,10.0,ESE,5.8,-,N/A,,Clear,110,2013-11-28 19:35:00
12:55 PM,42.8,26.6,53,30.19,10.0,SE,4.6,-,N/A,,Clear,140,2013-11-28 19:55:00
1:15 PM,42.8,26.6,53,30.18,10.0,Calm,Calm,-,N/A,,Clear,0,2013-11-28 20:15:00
1:35 PM,44.6,26.6,49,30.18,10.0,SE,3.5,-,N/A,,Clear,130,2013-11-28 20:35:00
1:55 PM,44.6,26.6,49,30.17,10.0,Calm,Calm,-,N/A,,Clear,0,2013-11-28 20:55:00
2:15 PM,46.4,28.4,50,30.17,10.0,Calm,Calm,-,N/A,,Clear,0,2013-11-28 21:15:00
2:35 PM,46.4,28.4,50,30.17,10.0,ENE,3.5,-,N/A,,Clear,70,2013-11-28 21:35:00
2:55 PM,46.4,26.6,46,30.17,10.0,Calm,Calm,-,N/A,,Clear,0,2013-11-28 21:55:00
3:15 PM,44.6,24.8,46,30.18,10.0,Calm,Calm,-,N/A,,Clear,0,2013-11-28 22:15:00
3:35 PM,44.6,24.8,46,30.17,10.0,NNW,3.5,-,N/A,,Clear,340,2013-11-28 22:35:00
3:55 PM,42.8,26.6,53,30.17,10.0,NNW,4.6,-,N/A,,Clear,340,2013-11-28 22:55:00
4:15 PM,41.0,26.6,57,30.17,10.0,NNW,4.6,-,N/A,,Clear,340,2013-11-28 23:15:00
4:35 PM,41.0,26.6,57,30.17,10.0,NNW,4.6,-,N/A,,Clear,340,2013-11-28 23:35:00
4:55 PM,39.2,24.8,56,30.18,10.0,North,3.5,-,N/A,,Clear,360,2013-11-28 23:55:00
5:15 PM,39.2,24.8,56,30.18,10.0,North,3.5,-,N/A,,Clear,360,2013-11-29 00:15:00
5:35 PM,39.2,24.8,56,30.18,10.0,North,4.6,-,N/A,,Clear,360,2013-11-29 00:35:00
5:55 PM,39.2,24.8,56,30.18,10.0,North,5.8,-,N/A,,Clear,350,2013-11-29 00:55:00
6:15 PM,33.8,23.0,65,30.18,10.0,NNW,5.8,-,N/A,,Clear,330,2013-11-29 01:15:00
6:35 PM,33.8,24.8,70,30.18,10.0,NNW,6.9,-,N/A,,Clear,330,2013-11-29 01:35:00
6:55 PM,33.8,24.8,70,30.17,10.0,NNW,6.9,-,N/A,,Clear,330,2013-11-29 01:55:00
7:15 PM,33.8,24.8,70,30.16,10.0,North,6.9,-,N/A,,Clear,10,2013-11-29 02:15:00
7:35 PM,33.8,24.8,70,30.16,10.0,North,5.8,-,N/A,,Clear,350,2013-11-29 02:35:00
7:55 PM,33.8,24.8,70,30.16,10.0,NNE,5.8,-,N/A,,Clear,20,2013-11-29 02:55:00
8:15 PM,33.8,24.8,70,30.16,10.0,NNE,6.9,-,N/A,,Clear,20,2013-11-29 03:15:00
8:35 PM,32.0,24.8,75,30.16,10.0,North,5.8,-,N/A,,Clear,10,2013-11-29 03:35:00
8:55 PM,30.2,24.8,80,30.16,10.0,North,5.8,-,N/A,,Clear,10,2013-11-29 03:55:00
9:15 PM,30.2,24.8,80,30.16,10.0,NNE,6.9,-,N/A,,Clear,20,2013-11-29 04:15:00
9:35 PM,30.2,23.0,75,30.15,10.0,North,6.9,-,N/A,,Clear,10,2013-11-29 04:35:00
9:55 PM,30.2,23.0,75,30.15,10.0,North,6.9,-,N/A,,Clear,10,2013-11-29 04:55:00
10:15 PM,28.4,23.0,80,30.15,10.0,Calm,Calm,-,N/A,,Clear,0,2013-11-29 05:15:00
10:35 PM,30.2,23.0,75,30.14,10.0,North,4.6,-,N/A,,Clear,10,2013-11-29 05:35:00
10:55 PM,28.4,21.2,74,30.15,10.0,Calm,Calm,-,N/A,,Clear,0,2013-11-29 05:55:00
11:15 PM,28.4,24.8,86,30.15,10.0,Calm,Calm,-,N/A,,Clear,0,2013-11-29 06:15:00
11:35 PM,30.2,24.8,80,30.14,10.0,North,3.5,-,N/A,,Clear,10,2013-11-29 06:35:00
11:55 PM,28.4,24.8,86,30.14,10.0,Calm,Calm,-,N/A,,Clear,0,2013-11-29 06:55:00